Home   Weather   Lubango   Past weeks

Flag for Angola Past Weather in Lubango, Angola — Yesterday and Last 2 Weeks

Now
77 °F

Passing clouds.


Feels Like: 78 °F
Forecast: 57 / 71 °F
Wind: 6 mph from Southeast

Location: Luanda Airport

Current Time: Dec 4, 2016 at 5:00:44 am

Latest Report: Dec 4, 2016 at 4:00 am


Visibility: N/A

Pressure: 29.83 "Hg (24.37 "Hg at 1765m altitude)

Humidity: 89%

Dew Point: 73 °F

Location of LubangoLocation

Past Weather in Lubango — Graph

°F

Lubango Temperature Yesterday

Maximum temperature yesterday: 88 °F (at 3:00 pm)
Minimum temperature yesterday: 77 °F (at 3:00 am)
Average temperature yesterday: 81 °F

High & Low Weather Summary for the Past Weeks

 TemperatureHumidityPressure
High90 °F (Nov 25, 3:00 pm)94% (Nov 21, 2:00 am)29.95 "Hg (Nov 21, 2:00 am)
Low72 °F (Nov 21, 2:00 am)58% (Nov 29, 3:00 pm)29.68 "Hg (Nov 19, 4:00 pm)
Average81 °F79%29.83 "Hg
* Reported Nov 19 4:00 am — Dec 4 3:00 am, Lubango, Weather by CustomWeather, © 2016

Note: Actual official high and low records may vary slightly from our data, if they occured in-between our weather recording intervals... More about our weather records

Advertising

Lubango Weather History for the Previous 24 Hours

Scroll right to see more
 ConditionsComfort  
Time TempWeatherWind HumidityBarometerVisibility
3:00 am
Sun, Dec 4
77 °FPassing clouds.5 mph89%29.83 "HgN/A
1:00 am79 °FPassing clouds.7 mph84%29.83 "HgN/A
12:00 am79 °FPassing clouds.7 mph84%29.86 "HgN/A
11:00 pm
Sat, Dec 3
79 °FPassing clouds.9 mph84%29.86 "HgN/A
10:00 pm79 °FPassing clouds.9 mph84%29.86 "HgN/A
9:00 pm79 °FPassing clouds.10 mph79%29.83 "HgN/A
8:00 pm81 °FPassing clouds.9 mph74%29.80 "HgN/A
7:00 pm81 °FPassing clouds.9 mph74%29.80 "HgN/A
6:00 pm84 °FPassing clouds.5 mph66%29.77 "HgN/A
5:00 pm86 °FPassing clouds.6 mph62%29.74 "HgN/A
4:00 pm86 °FScattered clouds.8 mph62%29.74 "HgN/A
3:00 pm88 °FPassing clouds.6 mph59%29.77 "HgN/A
2:00 pm86 °FScattered clouds.7 mph66%29.80 "HgN/A
1:00 pm86 °FScattered clouds.7 mph66%29.83 "HgN/A
12:00 pm84 °FScattered clouds.7 mph74%29.86 "HgN/A
11:00 am84 °FBroken clouds.5 mph74%29.89 "HgN/A
10:00 am82 °FBroken clouds.5 mph79%29.89 "HgN/A
9:00 am82 °FBroken clouds.2 mph79%29.89 "HgN/A
8:00 am81 °FPartly sunny.2 mph84%29.89 "HgN/A
7:00 am79 °FBroken clouds.2 mph89%29.86 "HgN/A
6:00 am77 °FScattered clouds.No wind89%29.83 "HgN/A
5:00 am77 °FPassing clouds.2 mph89%29.83 "HgN/A
Weather by CustomWeather, © 2016

See weather overviewHow to use our weather pages